FLOCK 4S-19 (47500 NORAD) Tracking and Keplerian Element Data

This shows tracking and keplerian element data for the satellite.

Feedback or suggestion? Click here.




ElementValue
Catalog47500
NameFLOCK 4S-19
Epoch Orbit1166
Epoch Day99.75338463
Epoch Year2021
RAAN162.2341
Inclination97.503
Eccentricity0.0010264
Argument of Perigee344.7151
Mean Anonmoly15.3768
Mean Motion15.12668202
Decay Rate1.786E-05
L11 47500U 21006CR 21099.75338463 .00001786 00000-0 10574-3 0 9997
L22 47500 97.5030 162.2341 0010264 344.7151 15.3768 15.12668202 11666

Live tracking and technical data element details for FLOCK 4S-19 (NORAD 47500). FLOCK 4S-19 can be tracked NOW for your location showing map with azimuth and elevation plus other details from your city location.

Track the satellite on the map from your city or location and see movement details for azimuth, elevation, latitude, longitude, range, height, and movement on the map or in text.







IsCatalogInMostPopularTable: catalog: 47500, numindb: 14
Update: records affected: 1



GetName: 47500 FLOCK 4S-19

Hit Count: updated at: Sat, 10 Apr 2021 18:33:52 GMT